Location: ??????
(56.0120°N, 39.1740°E)
Time: 07:11:47
(UTC+00:00)

Cosmos 1818 - Pass Details

Date: 14 April 2026
Orbit: 774 x 797 km, 65.0° (Epoch: 13 May)

Event Time Altitude Azimuth Distance (km) Brightness Sun altitude
Rises 22:08:31 0° 311° (NW) 3,311 7.2 -23.7°
Reaches altitude 10° 22:11:02 10° 306° (NW) 2,378 6.3 -23.6°
Enters shadow 22:15:46 43° 249° (WSW) 1,106 4.0 -23.4°
